COSMOS 1275 DEB, 12733

Orbit data source: Space-Track

COSMOS 1275 DEB, 12733 is space debris in LEO originally from a launch on Thu, 04 Jun 1981 UTC launched from the Plesetsk Missile And Space Complex (PKMTR). Debris objects in space refer to the collection of defunct objects orbiting the Earth. Examples of debris include non-operational satellites, rocket bodies, and fragments generated from explosions, collisions, or faulty payload assembly.

Loading next visibility...
Identifier
12733, 1981-053CA
Orbit
LEO
Country
Flag of CISCIS
Related business
Manufacturer
Unknown
Mission
Spacecraft
Bus & Motor
Unknown
Mass
Unknown
Launch date (UTC)
1981-06-04 (45 years ago)
Launch vehicle
Unknown
Launch site
Plesetsk Missile And Space Complex (PKMTR)
Object type
Payload
Rocket body
Debris
Shape & HBR
Unknown shape, 0.1 m
Radar Cross Section
Small (<0.1 m²)

Expand to show TLE details & history
Last TLE update: 9 hours ago

TLE from 9 hours ago
0 COSMOS 1275 DEB
1 12733U 81053CA  26199.86070810  .00001676  00000-0  52802-3 0  9990
2 12733  82.8524 239.3487 0019315 157.8415 202.3617 14.39789439301049
Epoch: 2026-07-18T20:39Z
TLE epoch observation values (Epoch: 2026-07-18T20:39:25.179Z)
Latitude
0.00004°
Longitude
-7.1736°
Altitude
774.937 km
Speed
7.46 km/s
True Right ascension
15h 57m 23s
True Declination
0° 00' 00"
Sunlit
Object was in full shadow at epoch
Visualization orbit readout
Latitude
Unknown
Longitude
Unknown
Altitude
Unknown
Speed
Unknown
Apparent Right ascension
Unknown
Apparent Declination
Unknown
Sunlit
N/A
Visualization observer readout
Local Sidereal Time
18:31:46
Azimuth
Unknown
Elevation
Unknown
Doppler factor
Unknown
Orbital elements
Apogee altitude
770.038 km
Perigee altitude
742.477 km
Semi-major axis
7,134.395 km
Eccentricity
0.00193
Inclination
82.8524°
RAAN
239.3487°
Arg. of periapsis
157.8415°
True anomaly
202.27768°
Mean anomaly
202.3617°
Eccentric anomaly
202.31967°
Mean motion
3.6017 °/min
Orbital period
99.95 mins
BSTAR
0.00052802
Loading maneuver chart data...
Computing Atmospheric mass density...

Documentation

Showing up to 5 results
|